SCP
0 0 0 0 0 0 0 0 0 0 0 0 0 0 0 0 0 1 1 1 1 1 1 -0 0 0 0 0 0 0 0 0
0 0 0 0 0 0 0 0 0 0 1 0 0 0 0 0 0 0 0 0 0 0 0 0 0 0 0 0 0 0 0 0
0 -0 0 0 0 0 0 0 0 0 0 1 0 0 0 0 0 0 0 0 0 0 0 0 0 0 0 0 0 0 0 0
0 0 0 0 0 0 0 0 0 0 1 1 1 0 0 0 0 0 0 0 0 0 0 0 0 0 0 0 0 0 0 0
0 0 0 0 0 0 0 0 0 0 0 0 0 0 0 0 0 0 0 0 0 0 0 0 0 0 0 0 0 0 0 0
0 0 0 0 0 0 0 0 0 0 0 0 0 0 0 0 0 0 0 0 0 0 0 0 0 0 0 0 0 0 0 0
0 0 0 0 0 0 0 0 0 0 0 0 0 0 0 0 0 0 0 0 0 0 0 0 0 0 0 0 0 0 0 0
0 0 0 0 0 0 0 1 1 1 1 0 0 0 0 0 0 0 0 0 0 0 0 0 0 0 0 0 0 0 0 0
0 0 0 0 0 0 0 0 0 0 0 0 0 0 -0 0 0 0 0 0 0 0 0 0 0 0 0 0 0 0 0 0
0 0 0 0 0 0 0 1 1 0 0 0 -0 -0 -0 -0 0 -0 -0 -0 -0 0 0 0 0 0 0 0 0 0 0 0
0 0 0 0 0 0 0 0 0 0 0 0 0 0 0 -0 -0 -0 -0 -0 0 0 0 0 0 0 0 0 0 0 0 0
0 0 0 0 0 0 0 0 0 1 1 0 0 0 0 -0 0 0 0 0 0 0 0 0 0 0 0 0 0 0 0 0
0 0 0 0 0 0 0 0 0 0 1 1 0 0 0 0 0 0 0 0 0 0 0 0 0 0 0 0 0 0 0 0
0 0 0 0 0 0 0 0 0 0 0 0 0 0 0 0 0 0 0 0 0 0 0 0 0 0 0 0 0 0 0 0
0 0 0 0 0 0 0 0 0 0 0 0 0 0 0 0 0 0 0 0 0 0 0 0 0 0 0 0 0 0 0 0
0 0 0 0 0 0 0 0 0 0 0 0 0 0 0 0 0 0 0 0 0 0 0 0 0 0 0 0 0 0 0 0
0 0 0 0 0 0 0 0 0 0 0 0 0 0 0 0 0 0 0 0 0 0 0 0 0 0 0 0 0 0 0 0
0 0 0 0 0 0 0 0 0 0 0 0 0 0 0 0 0 0 0 0 0 0 0 0 0 0 0 0 0 0 0 0
0 0 0 0 0 0 -0 0 0 0 0 0 0 0 0 0 0 0 0 0 0 0 0 0 0 0 0 0 0 0 0 0
Wind_Speed_500mb
8 12 20 14 6 15 8 2 7 10 8 8 6 19 36 43 38 32 27 51 57 60 62 71 75 71 65 66 54 53 49 45
17 8 7 18 10 3 6 3 5 9 6 7 5 15 24 32 48 49 52 50 45 50 57 66 70 68 67 69 64 57 43 40
5 4 5 8 3 6 10 11 11 6 7 13 25 28 31 37 42 47 52 60 57 58 58 58 60 59 59 50 52 48 41 40
19 8 12 15 15 11 11 11 6 10 5 10 33 45 57 51 48 48 50 47 51 51 51 51 47 41 41 35 35 35 30 25
17 14 15 8 10 8 9 7 8 11 8 10 29 47 53 54 33 27 43 43 40 35 30 25 23 22 21 23 21 23 24 24
12 12 5 11 18 5 10 7 7 7 20 23 22 32 34 42 54 52 41 37 33 30 24 18 15 16 19 21 23 22 22 18
2 3 20 20 22 21 16 1 9 24 27 34 22 29 42 50 48 46 43 35 26 18 17 18 18 20 20 19 17 18 18 15
10 16 36 30 40 31 18 14 26 30 16 15 33 33 38 47 52 49 44 36 31 27 25 25 23 20 14 12 11 8 8 8
8 12 4 21 20 25 19 17 12 12 14 33 23 33 43 47 46 43 41 38 35 33 31 27 23 16 9 8 10 10 9 8
2 13 11 11 10 17 36 23 23 30 29 37 45 45 53 53 54 48 43 43 41 36 30 20 17 17 14 9 7 10 9 11
8 5 6 2 7 6 10 12 14 11 12 31 33 36 33 48 51 53 49 42 36 29 23 21 18 14 15 17 16 15 16 16
4 10 10 13 8 18 13 6 23 29 26 29 40 9 9 53 52 46 39 39 36 28 19 17 17 19 15 16 19 20 18 17
8 5 10 13 14 14 6 12 36 46 44 44 16 13 40 51 53 53 51 41 26 19 14 11 15 14 15 17 19 17 15 19
4 6 9 6 8 14 12 43 40 35 40 47 25 38 52 58 59 50 41 29 20 15 14 12 15 19 22 25 20 16 21 27
11 10 8 5 3 28 27 34 36 33 35 30 50 53 57 56 52 44 29 20 16 17 19 19 21 26 30 28 24 23 29 35
4 6 11 14 40 39 41 40 30 26 26 26 34 47 49 46 41 36 29 21 12 14 16 18 25 31 32 26 24 31 36 39
4 4 13 20 34 37 34 29 28 29 28 24 28 44 49 48 48 38 24 19 20 21 24 24 24 25 27 27 30 34 40 42
10 26 15 31 31 26 22 19 14 15 19 15 16 30 54 55 46 35 28 27 27 27 26 28 29 28 26 28 32 40 42 43
16 30 38 40 32 30 33 25 16 14 12 9 15 17 47 51 41 35 29 28 25 24 23 20 22 22 24 30 34 39 41 39
Wind_Direction_500mb
224 228 179 223 160 190 133 97 109 196 249 308 50 92 99 85 94 103 141 175 186 195 197 198 201 201 200 198 207 205 214 226
283 22 349 146 171 76 7 202 297 343 349 246 238 74 77 91 97 95 109 114 130 157 173 184 191 197 198 200 200 204 210 209
161 143 201 324 221 92 124 137 169 145 241 330 78 83 81 68 70 82 105 117 127 135 155 166 173 180 189 188 196 198 194 187
216 195 195 178 214 143 127 253 227 144 252 50 101 95 87 68 59 91 110 118 120 123 122 133 142 148 156 167 180 185 186 195
353 354 4 340 262 159 107 78 203 137 186 150 123 116 120 112 84 140 128 132 132 132 135 137 147 164 183 187 189 191 179 161
177 197 168 357 360 24 125 117 179 156 148 177 178 140 136 132 152 159 155 156 152 151 147 148 158 170 179 171 168 172 184 213
71 109 95 51 16 17 31 328 135 163 167 175 183 148 141 145 154 158 162 168 171 171 165 169 172 176 182 191 204 216 226 240
24 40 72 52 24 38 37 54 82 115 109 146 152 146 145 155 161 169 172 178 174 164 160 156 160 163 167 177 192 211 224 242
305 354 99 40 353 31 57 26 146 156 177 145 152 162 172 169 176 180 179 174 169 166 160 162 169 173 184 211 200 201 233 263
160 10 52 218 283 39 66 44 59 87 138 159 167 179 175 180 175 176 175 174 171 167 165 172 192 205 211 227 243 245 252 284
97 50 297 172 280 156 107 25 118 131 140 141 156 155 175 180 179 175 171 169 173 173 187 193 202 220 248 256 258 268 279 284
112 102 219 237 248 202 132 165 150 167 162 157 149 156 213 187 181 180 172 174 178 190 211 218 231 250 265 277 266 265 287 285
90 95 275 245 238 157 92 218 186 198 183 168 188 210 178 190 190 184 179 177 188 205 223 230 250 272 292 309 304 290 285 287
124 119 251 204 269 165 169 144 138 139 165 172 201 161 160 169 174 178 179 185 198 219 234 257 273 277 276 294 315 296 293 293
156 210 261 19 87 132 130 141 147 145 154 158 161 166 175 182 185 186 187 193 206 225 241 249 256 259 271 287 283 275 288 291
95 231 212 123 105 119 118 114 139 156 166 168 181 183 188 187 186 192 193 203 217 234 243 257 259 260 265 266 268 284 287 293
277 61 149 161 136 130 123 118 115 141 159 169 194 198 201 197 194 197 210 222 230 241 246 260 270 266 267 272 281 284 289 295
214 190 178 186 164 151 141 127 146 164 146 155 176 198 205 199 194 200 205 211 229 239 254 276 287 277 267 275 280 287 285 295
152 158 141 138 144 146 137 126 113 128 139 162 170 189 199 192 196 200 207 216 237 262 280 283 282 283 277 272 284 285 287 299
Wind_Speed_850mb
8 12 20 14 6 15 8 2 7 10 8 8 6 19 36 43 38 32 27 51 57 60 62 71 75 71 65 66 54 53 49 45
17 8 7 18 10 3 6 3 5 9 6 7 5 15 24 32 48 49 52 50 45 50 57 66 70 68 67 69 64 57 43 40
5 4 5 8 3 6 10 11 11 6 7 13 25 28 31 37 42 47 52 60 57 58 58 58 60 59 59 50 52 48 41 40
19 8 12 15 15 11 11 11 6 10 5 10 33 45 57 51 48 48 50 47 51 51 51 51 47 41 41 35 35 35 30 25
17 14 15 8 10 8 9 7 8 11 8 10 29 47 53 54 33 27 43 43 40 35 30 25 23 22 21 23 21 23 24 24
12 12 5 11 18 5 10 7 7 7 20 23 22 32 34 42 54 52 41 37 33 30 24 18 15 16 19 21 23 22 22 18
2 3 20 20 22 21 16 1 9 24 27 34 22 29 42 50 48 46 43 35 26 18 17 18 18 20 20 19 17 18 18 15
10 16 36 30 40 31 18 14 26 30 16 15 33 33 38 47 52 49 44 36 31 27 25 25 23 20 14 12 11 8 8 8
8 12 4 21 20 25 19 17 12 12 14 33 23 33 43 47 46 43 41 38 35 33 31 27 23 16 9 8 10 10 9 8
2 13 11 11 10 17 36 23 23 30 29 37 45 45 53 53 54 48 43 43 41 36 30 20 17 17 14 9 7 10 9 11
8 5 6 2 7 6 10 12 14 11 12 31 33 36 33 48 51 53 49 42 36 29 23 21 18 14 15 17 16 15 16 16
4 10 10 13 8 18 13 6 23 29 26 29 40 9 9 53 52 46 39 39 36 28 19 17 17 19 15 16 19 20 18 17
8 5 10 13 14 14 6 12 36 46 44 44 16 13 40 51 53 53 51 41 26 19 14 11 15 14 15 17 19 17 15 19
4 6 9 6 8 14 12 43 40 35 40 47 25 38 52 58 59 50 41 29 20 15 14 12 15 19 22 25 20 16 21 27
11 10 8 5 3 28 27 34 36 33 35 30 50 53 57 56 52 44 29 20 16 17 19 19 21 26 30 28 24 23 29 35
4 6 11 14 40 39 41 40 30 26 26 26 34 47 49 46 41 36 29 21 12 14 16 18 25 31 32 26 24 31 36 39
4 4 13 20 34 37 34 29 28 29 28 24 28 44 49 48 48 38 24 19 20 21 24 24 24 25 27 27 30 34 40 42
10 26 15 31 31 26 22 19 14 15 19 15 16 30 54 55 46 35 28 27 27 27 26 28 29 28 26 28 32 40 42 43
16 30 38 40 32 30 33 25 16 14 12 9 15 17 47 51 41 35 29 28 25 24 23 20 22 22 24 30 34 39 41 39
Wind_Direction_850mb
224 228 179 223 160 190 133 97 109 196 249 308 50 92 99 85 94 103 141 175 186 195 197 198 201 201 200 198 207 205 214 226
283 22 349 146 171 76 7 202 297 343 349 246 238 74 77 91 97 95 109 114 130 157 173 184 191 197 198 200 200 204 210 209
161 143 201 324 221 92 124 137 169 145 241 330 78 83 81 68 70 82 105 117 127 135 155 166 173 180 189 188 196 198 194 187
216 195 195 178 214 143 127 253 227 144 252 50 101 95 87 68 59 91 110 118 120 123 122 133 142 148 156 167 180 185 186 195
353 354 4 340 262 159 107 78 203 137 186 150 123 116 120 112 84 140 128 132 132 132 135 137 147 164 183 187 189 191 179 161
177 197 168 357 360 24 125 117 179 156 148 177 178 140 136 132 152 159 155 156 152 151 147 148 158 170 179 171 168 172 184 213
71 109 95 51 16 17 31 328 135 163 167 175 183 148 141 145 154 158 162 168 171 171 165 169 172 176 182 191 204 216 226 240
24 40 72 52 24 38 37 54 82 115 109 146 152 146 145 155 161 169 172 178 174 164 160 156 160 163 167 177 192 211 224 242
305 354 99 40 353 31 57 26 146 156 177 145 152 162 172 169 176 180 179 174 169 166 160 162 169 173 184 211 200 201 233 263
160 10 52 218 283 39 66 44 59 87 138 159 167 179 175 180 175 176 175 174 171 167 165 172 192 205 211 227 243 245 252 284
97 50 297 172 280 156 107 25 118 131 140 141 156 155 175 180 179 175 171 169 173 173 187 193 202 220 248 256 258 268 279 284
112 102 219 237 248 202 132 165 150 167 162 157 149 156 213 187 181 180 172 174 178 190 211 218 231 250 265 277 266 265 287 285
90 95 275 245 238 157 92 218 186 198 183 168 188 210 178 190 190 184 179 177 188 205 223 230 250 272 292 309 304 290 285 287
124 119 251 204 269 165 169 144 138 139 165 172 201 161 160 169 174 178 179 185 198 219 234 257 273 277 276 294 315 296 293 293
156 210 261 19 87 132 130 141 147 145 154 158 161 166 175 182 185 186 187 193 206 225 241 249 256 259 271 287 283 275 288 291
95 231 212 123 105 119 118 114 139 156 166 168 181 183 188 187 186 192 193 203 217 234 243 257 259 260 265 266 268 284 287 293
277 61 149 161 136 130 123 118 115 141 159 169 194 198 201 197 194 197 210 222 230 241 246 260 270 266 267 272 281 284 289 295
214 190 178 186 164 151 141 127 146 164 146 155 176 198 205 199 194 200 205 211 229 239 254 276 287 277 267 275 280 287 285 295
152 158 141 138 144 146 137 126 113 128 139 162 170 189 199 192 196 200 207 216 237 262 280 283 282 283 277 272 284 285 287 299